"Pseudo-MPEC" for C0YZV52

Created 2019 Sep 12 8:07:09 UT using Find_Orb

Click here for an explanation of pseudo-MPECs

 
 Astrometry: 
     C0YZV52  C2019 09 07.34341 23 36 32.97 -12 37 05.4    ~9797 22.4 GVNEOCPG96
     C0YZV52  C2019 09 07.34804 23 36 31.98 -12 37 00.0    ~9797 21.9 GVNEOCPG96
     C0YZV52  C2019 09 07.35268 23 36 30.96 -12 36 55.6    ~9797 21.9 GVNEOCPG96
     C0YZV52  C2019 09 07.35730 23 36 29.94 -12 36 50.7    ~9797 21.7 GVNEOCPG96

Station data:
(G96) Mt. Lemmon Survey  (N32.442754 W110.788720)  US/Arizona.  Observers T.
   A. Pruyne, B. M. Africano, E. J. Christensen, G. A. Farneth, D. C. Fuls,
   A. R. Gibbs, A. D. Grauer, H. Groeller, J. A. Johnson, R. A. Kowalski, S.
   M. Larson, G. J. Leonard, D. Rankin, R. L. Seaman, F. C. Shelly. 1.5-m
   reflector + 10K CCD.

Orbital elements:  C0YZV52
   Perihelion 2019 May 12.801573 +/- 130 TT = 19:14:15 (JD 2458616.301573)
Epoch 2019 Sep  7.0 TT = JDT 2458733.5   Earth MOID: 0.0324   AutoNEOCP
M 103.98146528 +/- 90               (J2000 ecliptic)
n   0.88722577 +/- 0.396            Peri.  234.62471 +/- 90
a   1.07262179 +/- 0.319            Node     0.80925 +/- 36
e   0.0441047 +/- 0.265             Incl.    2.40587 +/- 27
P   1.11/405.75d           H 27.0   G  0.15   U 12.1  SR
q 1.02531410 +/- 0.478    Q 1.11992947 +/- 19
From 4 observations 2019 Sept. 7 (20.0 min); mean residual 0".18
Residuals in arcseconds: 
190907 G96  .14-  .21-    190907 G96  .07+  .10-    
190907 G96  .17+  .36+    190907 G96  .11-  .05-    

Ephemerides (geocentric):
Date (UTC) HH   RA              Dec         delta   r     elong  mag " sig PA
---- -- -- --  -------------   -----------  ------ ------ -----  --- ---- ---
2019 09 12 08  23 22 17.457   -11 08 56.46  .08362 1.0896 173.2 22.3  33d   8
2019 09 12 09  23 22 10.662   -11 08 12.64  .08366 1.0897 173.2 22.3  33d   8
2019 09 12 10  23 22 03.874   -11 07 28.81  .08370 1.0897 173.2 22.3  33d   8
2019 09 12 11  23 21 57.092   -11 06 44.98  .08374 1.0897 173.2 22.3  33d   8
2019 09 12 12  23 21 50.318   -11 06 01.16  .08378 1.0897 173.2 22.3  33d   8
2019 09 12 13  23 21 43.550   -11 05 17.33  .08382 1.0898 173.2 22.3  33d   8
2019 09 12 14  23 21 36.789   -11 04 33.50  .08386 1.0898 173.2 22.3  33d   8
2019 09 12 15  23 21 30.036   -11 03 49.68  .08390 1.0898 173.2 22.3  33d   8
2019 09 12 16  23 21 23.289   -11 03 05.85  .08394 1.0899 173.2 22.3  33d   7
2019 09 12 17  23 21 16.549   -11 02 22.02  .08398 1.0899 173.2 22.3  33d   7
2019 09 12 18  23 21 09.816   -11 01 38.20  .08402 1.0899 173.2 22.3  33d   7
2019 09 12 19  23 21 03.090   -11 00 54.37  .08406 1.0899 173.2 22.3  33d   7
2019 09 12 20  23 20 56.371   -11 00 10.55  .08410 1.0900 173.2 22.3  33d   7
2019 09 12 21  23 20 49.659   -10 59 26.72  .08414 1.0900 173.1 22.3  33d   7
2019 09 12 22  23 20 42.955   -10 58 42.90  .08418 1.0900 173.1 22.3  33d   7
2019 09 12 23  23 20 36.257   -10 57 59.08  .08422 1.0900 173.1 22.3  33d   7
2019 09 13 00  23 20 29.567   -10 57 15.25  .08426 1.0901 173.1 22.3  33d   7
2019 09 13 01  23 20 22.883   -10 56 31.43  .08430 1.0901 173.1 22.3  33d   7
2019 09 13 02  23 20 16.207   -10 55 47.61  .08434 1.0901 173.1 22.3  33d   7
2019 09 13 03  23 20 09.538   -10 55 03.79  .08438 1.0902 173.1 22.3  33d   7
2019 09 13 04  23 20 02.876   -10 54 19.98  .08442 1.0902 173.1 22.3  33d   7
2019 09 13 05  23 19 56.222   -10 53 36.16  .08446 1.0902 173.1 22.3  33d   7
2019 09 13 06  23 19 49.575   -10 52 52.35  .08450 1.0902 173.1 22.3  33d   7
2019 09 13 07  23 19 42.935   -10 52 08.54  .08454 1.0903 173.1 22.3  33d   7
2019 09 13 08  23 19 36.302   -10 51 24.73  .08458 1.0903 173.1 22.3  33d   7
2019 09 13 09  23 19 29.676   -10 50 40.92  .08462 1.0903 173.0 22.3  33d   7
2019 09 13 10  23 19 23.058   -10 49 57.11  .08466 1.0904 173.0 22.3  33d   7
2019 09 13 11  23 19 16.448   -10 49 13.31  .08471 1.0904 173.0 22.3  33d   7
2019 09 13 12  23 19 09.844   -10 48 29.50  .08475 1.0904 173.0 22.3  33d   7
2019 09 13 13  23 19 03.248   -10 47 45.71  .08479 1.0904 173.0 22.3  33d   7
2019 09 13 14  23 18 56.660   -10 47 01.91  .08483 1.0905 173.0 22.3  33d   7
2019 09 13 15  23 18 50.079   -10 46 18.11  .08487 1.0905 173.0 22.3  33d   7
2019 09 13 16  23 18 43.505   -10 45 34.32  .08491 1.0905 172.9 22.3  33d   7
2019 09 13 17  23 18 36.939   -10 44 50.53  .08496 1.0905 172.9 22.3  33d   7
2019 09 13 18  23 18 30.380   -10 44 06.75  .08500 1.0906 172.9 22.3  33d   7
2019 09 13 19  23 18 23.829   -10 43 22.96  .08504 1.0906 172.9 22.3  33d   7
2019 09 13 20  23 18 17.285   -10 42 39.18  .08508 1.0906 172.9 22.3  33d   8
2019 09 13 21  23 18 10.749   -10 41 55.41  .08512 1.0907 172.8 22.3  33d   8
2019 09 13 22  23 18 04.220   -10 41 11.63  .08517 1.0907 172.8 22.3  33d   8
2019 09 13 23  23 17 57.699   -10 40 27.86  .08521 1.0907 172.8 22.3  33d   8
2019 09 14 00  23 17 51.186   -10 39 44.10  .08525 1.0907 172.8 22.3  33d   8
2019 09 14 01  23 17 44.680   -10 39 00.33  .08529 1.0908 172.8 22.3  33d   8
2019 09 14 02  23 17 38.182   -10 38 16.57  .08534 1.0908 172.7 22.3  33d   8
2019 09 14 03  23 17 31.692   -10 37 32.82  .08538 1.0908 172.7 22.3  33d   8
2019 09 14 04  23 17 25.209   -10 36 49.07  .08542 1.0909 172.7 22.3  33d   8
2019 09 14 05  23 17 18.734   -10 36 05.32  .08547 1.0909 172.7 22.3  33d   8
2019 09 14 06  23 17 12.266   -10 35 21.58  .08551 1.0909 172.7 22.3  33d   8
2019 09 14 07  23 17 05.806   -10 34 37.84  .08555 1.0909 172.6 22.3  33d   8